Time,TemperatureF,DewpointF,PressureIn,WindDirection,WindDirectionDegrees,WindSpeedMPH,WindSpeedGustMPH,Humidity,HourlyPrecipIn,Conditions,Clouds,dailyrainin,SoftwareType,DateUTC
2014-01-16 00:12:00,26.0,16.0,29.96,WNW,303,1.0,9.0,66,0.00,,,0.00,,2014-01-16 05:12:00,
2014-01-16 00:23:00,26.0,16.0,29.95,NW,307,3.0,7.0,65,0.00,,,0.00,,2014-01-16 05:23:00,
2014-01-16 00:43:00,26.0,17.0,29.96,NW,326,1.0,3.0,69,0.00,,,0.00,,2014-01-16 05:43:00,
2014-01-16 00:53:00,26.0,16.0,29.96,West,276,2.0,6.0,66,0.00,,,0.00,,2014-01-16 05:53:00,
2014-01-16 01:12:00,26.0,16.0,29.96,NW,316,2.0,4.0,66,0.00,,,0.00,,2014-01-16 06:12:00,
2014-01-16 01:22:00,25.0,16.0,29.95,NW,314,0.0,4.0,67,0.00,,,0.00,,2014-01-16 06:22:00,
2014-01-16 01:43:00,25.0,16.0,29.96,WNW,300,0.0,3.0,67,0.00,,,0.00,,2014-01-16 06:43:00,
2014-01-16 01:52:00,25.0,16.0,29.96,WNW,296,1.0,4.0,67,0.00,,,0.00,,2014-01-16 06:52:00,
2014-01-16 02:11:00,25.0,15.0,29.96,NW,307,2.0,4.0,66,0.00,,,0.00,,2014-01-16 07:11:00,
2014-01-16 02:22:00,25.0,16.0,29.95,WNW,300,1.0,2.0,67,0.00,,,0.00,,2014-01-16 07:22:00,
2014-01-16 02:42:00,25.0,16.0,29.95,NNW,341,0.0,2.0,69,0.00,,,0.00,,2014-01-16 07:42:00,
2014-01-16 02:52:00,25.0,16.0,29.95,WNW,301,0.0,1.0,69,0.00,,,0.00,,2014-01-16 07:52:00,
2014-01-16 03:11:00,24.0,16.0,29.95,WNW,288,0.0,1.0,70,0.00,,,0.00,,2014-01-16 08:11:00,
2014-01-16 03:22:00,24.0,16.0,29.95,West,281,0.0,3.0,71,0.00,,,0.00,,2014-01-16 08:22:00,
2014-01-16 03:42:00,24.0,16.0,29.95,WNW,295,0.0,2.0,71,0.00,,,0.00,,2014-01-16 08:42:00,
2014-01-16 03:53:00,24.0,16.0,29.96,WNW,302,1.0,3.0,72,0.00,,,0.00,,2014-01-16 08:53:00,
2014-01-16 04:11:00,23.0,16.0,29.95,WNW,300,1.0,4.0,74,0.00,,,0.00,,2014-01-16 09:11:00,
2014-01-16 04:22:00,23.0,16.0,29.95,WNW,286,1.0,4.0,74,0.00,,,0.00,,2014-01-16 09:22:00,
2014-01-16 04:43:00,23.0,16.0,29.95,NW,321,0.0,5.0,75,0.00,,,0.00,,2014-01-16 09:43:00,
2014-01-16 04:53:00,23.0,16.0,29.95,WNW,301,1.0,5.0,75,0.00,,,0.00,,2014-01-16 09:53:00,
2014-01-16 05:13:00,23.0,17.0,29.95,NW,314,1.0,4.0,76,0.00,,,0.00,,2014-01-16 10:13:00,
2014-01-16 05:23:00,23.0,17.0,29.95,WNW,301,1.0,4.0,77,0.00,,,0.00,,2014-01-16 10:23:00,
2014-01-16 05:43:00,23.0,17.0,29.94,South,172,0.0,3.0,78,0.00,,,0.00,,2014-01-16 10:43:00,
2014-01-16 05:53:00,23.0,18.0,29.95,WNW,293,0.0,4.0,80,0.00,,,0.00,,2014-01-16 10:53:00,
2014-01-16 06:12:00,23.0,18.0,29.95,WNW,294,0.0,4.0,80,0.00,,,0.00,,2014-01-16 11:12:00,
2014-01-16 06:22:00,23.0,18.0,29.95,WNW,295,0.0,3.0,80,0.00,,,0.00,,2014-01-16 11:22:00,
2014-01-16 06:42:00,23.0,18.0,29.95,NW,321,1.0,2.0,80,0.00,,,0.00,,2014-01-16 11:42:00,
2014-01-16 06:53:00,23.0,17.0,29.94,WNW,300,0.0,1.0,79,0.00,,,0.00,,2014-01-16 11:53:00,
2014-01-16 07:11:00,23.0,17.0,29.94,WNW,288,0.0,1.0,79,0.00,,,0.00,,2014-01-16 12:11:00,
2014-01-16 07:22:00,23.0,18.0,29.93,SSE,162,0.0,1.0,80,0.00,,,0.00,,2014-01-16 12:22:00,
2014-01-16 07:42:00,23.0,17.0,29.93,South,186,0.0,1.0,79,0.00,,,0.00,,2014-01-16 12:42:00,
2014-01-16 07:52:00,22.0,16.0,29.94,West,272,0.0,1.0,78,0.00,,,0.00,,2014-01-16 12:52:00,
2014-01-16 08:12:00,22.0,16.0,29.94,South,178,0.0,1.0,79,0.00,,,0.00,,2014-01-16 13:12:00,
2014-01-16 08:22:00,22.0,15.0,29.95,WNW,288,0.0,3.0,75,0.00,,,0.00,,2014-01-16 13:22:00,
2014-01-16 08:42:00,22.0,15.0,29.97,NW,311,2.0,6.0,73,0.00,,,0.00,,2014-01-16 13:42:00,
2014-01-16 08:52:00,22.0,14.0,29.97,NNW,332,5.0,11.0,71,0.00,,,0.00,,2014-01-16 13:52:00,
2014-01-16 09:11:00,22.0,13.0,29.97,WNW,295,3.0,9.0,68,0.00,,,0.00,,2014-01-16 14:11:00,
2014-01-16 09:22:00,23.0,14.0,29.98,NW,304,2.0,8.0,68,0.00,,,0.00,,2014-01-16 14:22:00,
2014-01-16 09:42:00,23.0,13.0,29.99,WNW,302,3.0,9.0,66,0.00,,,0.00,,2014-01-16 14:42:00,
2014-01-16 09:52:00,23.0,13.0,29.99,NW,304,1.0,9.0,66,0.00,,,0.00,,2014-01-16 14:52:00,
2014-01-16 10:11:00,23.0,14.0,30.00,NW,306,1.0,4.0,68,0.00,,,0.00,,2014-01-16 15:11:00,
2014-01-16 10:22:00,23.0,14.0,30.00,WNW,285,1.0,3.0,68,0.00,,,0.00,,2014-01-16 15:22:00,
2014-01-16 10:54:00,24.0,15.0,29.99,WNW,288,1.0,4.0,67,0.00,,,0.00,,2014-01-16 15:54:00,
2014-01-16 11:13:00,24.0,14.0,29.99,West,265,0.0,4.0,66,0.00,,,0.00,,2014-01-16 16:13:00,
2014-01-16 11:23:00,25.0,16.0,29.98,South,174,2.0,5.0,67,0.00,,,0.00,,2014-01-16 16:23:00,
2014-01-16 11:43:00,27.0,18.0,29.97,NW,312,1.0,8.0,68,0.00,,,0.00,,2014-01-16 16:43:00,
2014-01-16 11:53:00,28.0,17.0,29.95,ESE,120,2.0,6.0,64,0.00,,,0.00,,2014-01-16 16:53:00,
2014-01-16 12:12:00,27.0,17.0,29.93,South,170,0.0,6.0,66,0.00,,,0.00,,2014-01-16 17:12:00,
2014-01-16 12:22:00,27.0,17.0,29.93,South,174,1.0,7.0,65,0.00,,,0.00,,2014-01-16 17:22:00,
2014-01-16 12:43:00,28.0,16.0,29.91,SSE,164,1.0,4.0,61,0.00,,,0.00,,2014-01-16 17:43:00,
2014-01-16 12:52:00,29.0,18.0,29.91,SSE,160,0.0,6.0,62,0.00,,,0.00,,2014-01-16 17:52:00,
2014-01-16 13:12:00,28.0,17.0,29.90,SE,130,0.0,4.0,63,0.00,,,0.00,,2014-01-16 18:12:00,
2014-01-16 13:22:00,29.0,18.0,29.90,SE,141,0.0,4.0,63,0.00,,,0.00,,2014-01-16 18:22:00,
2014-01-16 13:42:00,29.0,17.0,29.89,SSW,209,0.0,4.0,61,0.00,,,0.00,,2014-01-16 18:42:00,
2014-01-16 13:52:00,30.0,17.0,29.89,SSW,204,0.0,5.0,57,0.00,,,0.00,,2014-01-16 18:52:00,
2014-01-16 14:12:00,31.0,17.0,29.89,SSE,158,3.0,8.0,56,0.00,,,0.00,,2014-01-16 19:12:00,
2014-01-16 14:22:00,31.0,16.0,29.89,SSE,147,3.0,7.0,53,0.00,,,0.00,,2014-01-16 19:22:00,
2014-01-16 14:42:00,31.0,16.0,29.89,South,173,1.0,8.0,53,0.00,,,0.00,,2014-01-16 19:42:00,
2014-01-16 14:52:00,32.0,16.0,29.88,ENE,65,0.0,4.0,52,0.00,,,0.00,,2014-01-16 19:52:00,
2014-01-16 15:11:00,32.0,15.0,29.88,SSW,210,1.0,5.0,50,0.00,,,0.00,,2014-01-16 20:11:00,
2014-01-16 15:22:00,32.0,16.0,29.88,SSE,165,1.0,5.0,51,0.00,,,0.00,,2014-01-16 20:22:00,
2014-01-16 15:42:00,31.0,15.0,29.88,South,181,0.0,5.0,51,0.00,,,0.00,,2014-01-16 20:42:00,
2014-01-16 15:52:00,30.0,14.0,29.87,SSE,162,1.0,5.0,51,0.00,,,0.00,,2014-01-16 20:52:00,
2014-01-16 16:11:00,30.0,15.0,29.87,SSE,164,1.0,3.0,52,0.00,,,0.00,,2014-01-16 21:11:00,
2014-01-16 16:22:00,29.0,14.0,29.87,SSE,164,2.0,4.0,53,0.00,,,0.00,,2014-01-16 21:22:00,
2014-01-16 16:43:00,29.0,14.0,29.87,SSW,198,1.0,4.0,54,0.00,,,0.00,,2014-01-16 21:43:00,
2014-01-16 16:53:00,28.0,14.0,29.87,SE,133,0.0,3.0,55,0.00,,,0.00,,2014-01-16 21:53:00,
2014-01-16 17:13:00,28.0,15.0,29.87,SSE,162,2.0,4.0,57,0.00,,,0.00,,2014-01-16 22:13:00,
2014-01-16 17:23:00,27.0,14.0,29.86,SSE,153,1.0,4.0,57,0.00,,,0.00,,2014-01-16 22:23:00,
2014-01-16 17:42:00,26.0,14.0,29.87,South,174,3.0,6.0,59,0.00,,,0.00,,2014-01-16 22:42:00,
2014-01-16 17:52:00,26.0,13.0,29.88,South,172,3.0,6.0,58,0.00,,,0.00,,2014-01-16 22:52:00,
2014-01-16 18:12:00,26.0,14.0,29.88,SSE,168,2.0,6.0,59,0.00,,,0.00,,2014-01-16 23:12:00,
2014-01-16 18:22:00,26.0,14.0,29.89,SSE,158,1.0,6.0,59,0.00,,,0.00,,2014-01-16 23:22:00,
2014-01-16 18:42:00,26.0,13.0,29.90,SSE,166,2.0,4.0,58,0.00,,,0.00,,2014-01-16 23:42:00,
2014-01-16 18:53:00,26.0,14.0,29.90,SSE,163,2.0,4.0,59,0.00,,,0.00,,2014-01-16 23:53:00,
2014-01-16 19:11:00,26.0,14.0,29.91,SSE,164,2.0,5.0,60,0.00,,,0.00,,2014-01-17 00:11:00,
2014-01-16 19:22:00,26.0,15.0,29.91,South,181,1.0,5.0,62,0.00,,,0.00,,2014-01-17 00:22:00,
2014-01-16 19:42:00,26.0,16.0,29.91,SSE,156,2.0,6.0,64,0.00,,,0.00,,2014-01-17 00:42:00,
2014-01-16 19:53:00,25.0,15.0,29.91,South,169,3.0,6.0,64,0.00,,,0.00,,2014-01-17 00:53:00,
2014-01-16 20:12:00,25.0,15.0,29.90,South,169,3.0,6.0,65,0.00,,,0.00,,2014-01-17 01:12:00,
2014-01-16 20:22:00,26.0,16.0,29.90,SSE,167,4.0,9.0,65,0.00,,,0.00,,2014-01-17 01:22:00,
2014-01-16 20:42:00,25.0,15.0,29.91,SSW,198,4.0,7.0,66,0.00,,,0.00,,2014-01-17 01:42:00,
2014-01-16 20:52:00,25.0,15.0,29.91,South,173,3.0,6.0,66,0.00,,,0.00,,2014-01-17 01:52:00,
2014-01-16 21:12:00,25.0,15.0,29.91,SSE,164,3.0,6.0,66,0.00,,,0.00,,2014-01-17 02:12:00,
2014-01-16 21:22:00,25.0,16.0,29.92,South,172,2.0,9.0,67,0.00,,,0.00,,2014-01-17 02:22:00,
2014-01-16 21:42:00,25.0,16.0,29.92,South,172,2.0,6.0,67,0.00,,,0.00,,2014-01-17 02:42:00,
2014-01-16 21:52:00,25.0,16.0,29.92,SSE,157,1.0,5.0,68,0.00,,,0.00,,2014-01-17 02:52:00,
2014-01-16 22:11:00,25.0,16.0,29.91,SSE,158,2.0,6.0,68,0.00,,,0.00,,2014-01-17 03:11:00,
2014-01-16 22:22:00,25.0,16.0,29.91,South,169,1.0,5.0,68,0.00,,,0.00,,2014-01-17 03:22:00,
2014-01-16 22:43:00,25.0,16.0,29.91,SSE,160,2.0,5.0,69,0.00,,,0.00,,2014-01-17 03:43:00,
2014-01-16 22:54:00,25.0,16.0,29.91,SSW,198,3.0,7.0,69,0.00,,,0.00,,2014-01-17 03:54:00,
2014-01-16 23:13:00,25.0,16.0,29.91,South,179,4.0,7.0,69,0.00,,,0.00,,2014-01-17 04:13:00,
2014-01-16 23:23:00,25.0,16.0,29.91,SSW,193,4.0,7.0,69,0.00,,,0.00,,2014-01-17 04:23:00,
2014-01-16 23:43:00,25.0,17.0,29.91,SSE,163,4.0,8.0,70,0.00,,,0.00,,2014-01-17 04:43:00,
2014-01-16 23:52:00,24.0,16.0,29.91,SSE,159,4.0,11.0,70,0.00,,,0.00,,2014-01-17 04:52:00,